星链-2292 (STARLINK-2292 )

导读

STARLINK-2292是美国SpaceX公司星链星座中的一颗低轨通信卫星,于2021年3月24日发射入轨,属于星链全球卫星互联网项目的组网卫星。该卫星运行在近地轨道,采用平板设计搭配氪工质霍尔推进器,支持自主避撞,为全球偏远及基础设施薄弱区域提供高速低延迟宽带互联网服务,是星链大规模组网进程中的组成单元。

基本信息
目录编号:
48023
目录名称:
STARLINK-2292
国际标识:
2021-024AY
轨道中心:
EARTH
卫星名称:
星链-2292
卫星全名:
星链-2292 (STARLINK-2292 )
卫星状态:
在轨 (已飞行1997 天)
发射日期:
2021-03-24 UTC
国别 :
美国 (US)
星等 :
--
该卫星已列入 空间交会检测服务 Space Conjunction Data Service (SCDS) ,当前飞行风险评估等级: 无高风险
轨道信息
数据来源 国际轨道数据
星历时间: 2026-09-11T11:49:36+0800
10小时前
查看轨道信息
半长轴: 6788.913km
偏心率: 0.0001713
轨道倾角: 53.112°
近地点辐角 155.295°
升交点赤经 173.718°
平近点角 204.814°
近地点: 409.613km
远地点: 411.939km
周期: 92.781分钟
每日圈数: 15.520383
详细信息
固有亮度:
5
最大亮度:
2.5
卫星平台:
Starlink V1.0
覆盖范围:
全球
运营商:
太空探索技术公司
运营商所在国:
美国
制造商(研发单位):
太空探索技术公司
制造商所在国:
美国
使用方式:
暂无
卫星简介
星链(Starlink)计划是由太空探索技术公司(SpaceX)提出的一个巨型低轨卫星互联网星座项目,计划在2019年至2024年间在太空搭建由约1.2万颗卫星组成的“星链”网络,其中1584颗将部署在地球上空550千米处的近地轨道,并从2020年开始工作。该卫星仍在工作。
2D轨道图
3D轨道图
轨道高度分析图
轨道倾角分析图
轨道综合分析图
查看轨道综合分析图
交会数据列表
事件ID 空间交会对象 最接近时刻(TCA) 交会距离 交会风险概率(CRP) 交会风险指数(CRI) 操作
CDM_260913-011704-802305-510324
2026-09-13T
01:17:00+0000
0.765 km
远距离
6.529075E-5 中风险 0.71
与全量物体交会距离演化趋势
与全量物体交会风险概率演化趋势